Home   Weather   Wermelskirchen   Past weeks

Flag for Germany Past Weather in Wermelskirchen, North Rhine-Westphalia, Germany — Yesterday and Last 2 Weeks

Now
19 °F

Low clouds.


Feels Like: 19 °F
Forecast: 23 / 30 °F
Wind: 2 mph from North

Location: Koeln / Bonn

Current Time: Jan 23, 2017 at 7:24:17 am

Latest Report: Jan 23, 2017 at 6:50 am


Visibility: 4 mi

Pressure: 30.33 "Hg

Humidity: 93%

Dew Point: 18 °F

Location of WermelskirchenLocation

Past Weather in Wermelskirchen — Graph

°F

Wermelskirchen Temperature Yesterday

Maximum temperature yesterday: 36 °F (at 1:50 pm)
Minimum temperature yesterday: 16 °F (at 7:50 am)
Average temperature yesterday: 26 °F

High & Low Weather Summary for the Past Weeks

 TemperatureHumidityPressure
High46 °F (Jan 11, 4:20 pm)100% (Jan 8, 5:20 am)30.69 "Hg (Jan 8, 5:20 am)
Low12 °F (Jan 18, 7:20 am)42% (Jan 20, 1:20 pm)28.97 "Hg (Jan 13, 1:20 am)
Average31 °F85%30.19 "Hg
* Reported Jan 8 5:20 am — Jan 23 5:50 am, Wermelskirchen, Weather by CustomWeather, © 2017

Note: Actual official high and low records may vary slightly from our data, if they occured in-between our weather recording intervals... More about our weather records

Advertising

Wermelskirchen Weather History for the Previous 24 Hours

Scroll right to see more
 ConditionsComfort  
Time TempWeatherWind HumidityBarometerVisibility
5:50 am
Mon, Jan 23
16 °FPassing clouds.3 mph86%30.30 "Hg4 mi
5:20 am14 °FPassing clouds.1 mph92%30.30 "Hg4 mi
4:50 am14 °FPassing clouds.1 mph92%30.30 "Hg4 mi
4:20 am16 °FClear.1 mph93%30.30 "Hg4 mi
3:50 am16 °FClear.2 mph93%30.30 "Hg4 mi
3:20 am16 °FClear.5 mph93%30.30 "Hg4 mi
2:50 am16 °FClear.3 mph93%30.33 "Hg5 mi
2:20 am18 °FClear.2 mph93%30.33 "Hg5 mi
1:50 am18 °FClear.1 mph93%30.30 "Hg5 mi
1:20 am16 °FClear.1 mph93%30.30 "Hg5 mi
12:50 am18 °FClear.1 mph93%30.30 "Hg5 mi
12:20 am19 °FClear.2 mph93%30.30 "Hg5 mi
11:50 pm
Sun, Jan 22
19 °FClear.1 mph93%30.30 "Hg6 mi
11:20 pm21 °FClear.3 mph86%30.30 "Hg10 mi
10:50 pm19 °FClear.2 mph93%30.30 "Hg10 mi
10:20 pm19 °FClear.No wind93%30.30 "Hg10 mi
9:50 pm19 °FClear.1 mph86%30.30 "Hg10 mi
9:20 pm23 °FClear.3 mph86%30.30 "Hg10 mi
8:50 pm23 °FClear.2 mph80%30.30 "Hg10 mi
8:20 pm23 °FClear.1 mph86%30.30 "Hg10 mi
7:50 pm27 °FClear.2 mph74%30.30 "Hg10 mi
7:20 pm27 °FClear.1 mph74%30.30 "Hg10 mi
6:50 pm27 °FClear.2 mph74%30.30 "Hg10 mi
6:20 pm28 °FClear.2 mph69%30.30 "Hg10 mi
5:50 pm28 °FClear.1 mph69%30.30 "Hg10 mi
5:20 pm30 °FClear.2 mph64%30.27 "Hg10 mi
4:50 pm34 °FSunny.No wind56%30.27 "Hg10 mi
4:20 pm36 °FSunny.1 mph52%30.27 "Hg10 mi
3:50 pm36 °FSunny.2 mph52%30.27 "Hg10 mi
3:20 pm36 °FPassing clouds.6 mph52%30.27 "HgN/A
2:50 pm36 °FSunny.2 mph52%30.27 "Hg10 mi
2:20 pm36 °FSunny.2 mph52%30.30 "Hg10 mi
1:50 pm36 °FSunny.5 mph52%30.30 "Hg10 mi
1:20 pm34 °FPassing clouds.6 mph56%30.30 "HgN/A
12:50 pm34 °FPassing clouds.9 mph56%30.30 "HgN/A
12:20 pm32 °FPassing clouds.6 mph60%30.33 "HgN/A
11:50 am32 °FPassing clouds.3 mph60%30.33 "HgN/A
11:20 am28 °FSunny.6 mph69%30.33 "Hg10 mi
10:50 am27 °FSunny.6 mph74%30.33 "Hg10 mi
10:20 am27 °FPassing clouds.5 mph69%30.33 "HgN/A
9:50 am23 °FSunny.2 mph80%30.33 "Hg10 mi
9:20 am18 °FSunny.3 mph93%30.33 "Hg10 mi
8:50 am18 °FPassing clouds.3 mph93%30.33 "HgN/A
8:20 am16 °FPassing clouds.3 mph86%30.33 "HgN/A
7:50 am16 °FClear.2 mph93%30.33 "Hg10 mi
7:20 am18 °FClear.No wind93%30.33 "Hg10 mi
Weather by CustomWeather, © 2017

See weather overviewHow to use our weather pages